STARLINK-31824, 59804

Orbit data source: Space-Track

STARLINK-31824, 59804 is a payload satellite owned by SpaceX/Seattle (US) in LEO that was launched on Sat, 18 May 2024 UTC via an FALCON 9 launch vehicle from the Air Force Eastern Test Range (AFETR). Payload-class satellites include a variety of spacecraft equipped with specific instruments for various scientific and technological missions. These include communications satellites like Starlink; space stations such as the ISS; scientific satellites like the Hubble; Earth observation satellites from companies like Planet Labs, Umbra, and HawkEye 360; GPS; miniature CubeSats for education and research; and military/defense satellites.

Loading next visibility...
Identifier
59804, 2024-093Y
Orbit
LEO
Country
Flag of USUS
Related business
Manufacturer
SpaceX/Seattle
Mission
Operational Commercial Communications
Bus & Motor
STARLINK V2M, Unknown motor
Mass
730 kg wet, ~700 kg dry
Launch date (UTC)
2024-05-18 (2 years ago)
Launch vehicle
FALCON 9
Launch site
Air Force Eastern Test Range (AFETR)
Object type
Payload
Rocket body
Debris
Shape & HBR
Box + 2 Pan, 17.7 m
Radar Cross Section
33.884 m², Large (>1 m²)

Expand to show TLE details & history
Last TLE update: 1 day ago

TLE from 1 day ago
0 STARLINK-31824
1 59804U 24093Y   26125.64799608  .00000989  00000-0  45441-4 0  9997
2 59804  42.9992 247.4641 0000880 275.5524  84.5228 15.27592067111407
Epoch: 2026-05-05T15:33Z
TLE epoch observation values (Epoch: 2026-05-05T15:33:06.861Z)
Latitude
0.00004°
Longitude
150.66573°
Altitude
482.731 km
Speed
7.626 km/s
True Right ascension
16h 29m 51s
True Declination
0° 00' 00"
Sunlit
Object was in full shadow at epoch
Visualization orbit readout
Latitude
Unknown
Longitude
Unknown
Altitude
Unknown
Speed
Unknown
Apparent Right ascension
Unknown
Apparent Declination
Unknown
Sunlit
N/A
Visualization observer readout
Local Sidereal Time
23:13:03
Azimuth
Unknown
Elevation
Unknown
Doppler factor
Unknown
Orbital elements
Apogee altitude
485.562 km
Perigee altitude
484.354 km
Semi-major axis
6,863.095 km
Eccentricity
0.00009
Inclination
42.9992°
RAAN
247.4641°
Arg. of periapsis
275.5524°
True anomaly
84.53284°
Mean anomaly
84.5228°
Eccentric anomaly
84.52782°
Mean motion
3.81736 °/min
Orbital period
94.31 mins
BSTAR
0.000045441
Loading maneuver chart data...
Computing Atmospheric mass density...
Loading historical data...
Loading historical data...
Loading historical data...
Loading historical data...
Loading historical data...
Loading historical data...
Loading historical data...

Documentation

Showing up to 5 results
|